Location: Unspecified
(0.0000°N, 0.0000°E)
Time: 01:41:48
(UTC+00:00)

ISS - Visible Passes

Search period start: 01 August 2014 00:00
Search period end: 11 August 2014 00:00
Orbit: 411 x 419 km, 51.6° (Epoch: 31 July)

Date Brightness Start Highest point End Pass type
(mag) Time Alt. Az. Time Alt. Az. Time Alt. Az.
01 Aug -3.2 18:52:46 10° SW 18:56:04 80° NW 18:59:22 10° NNE visible
03 Aug -0.5 05:40:05 10° N 05:42:51 24° NE 05:45:37 10° ESE visible
03 Aug 0.0 18:52:56 10° W 18:54:58 15° NW 18:57:01 10° NNW visible
04 Aug 0.4 04:53:09 10° NE 04:54:01 11° NE 04:54:53 10° ENE visible
05 Aug -3.2 05:38:26 10° NW 05:41:43 59° SW 05:45:01 10° SSE visible
06 Aug -2.3 04:49:39 10° NNW 04:52:54 49° NE 04:56:09 10° SE visible
07 Aug -0.4 04:04:57 18° ENE 04:04:57 18° ENE 04:06:38 10° ESE visible
07 Aug -1.3 05:39:05 10° W 05:40:35 12° SW 05:42:04 10° SSW visible
08 Aug -1.1 04:53:49 15° S 04:53:49 15° S 04:54:38 10° S visible
